Weather History for Washington, GA

Change the Weather History Date:

Thursday, February 14, 2013

  Actual Average (KDBN) Record (KDBN)
Temperature  
Mean Temperature 43 °F -  
Max Temperature 53 °F 60 °F 82 °F (1938)
Min Temperature 33 °F 33 °F 20 °F (1971)
Degree Days  
Heating Degree Days 22    
Moisture  
Dew Point 34 °F    
Average Humidity 78    
Maximum Humidity 100    
Minimum Humidity 44    
Precipitation  
Precipitation 0.00 in - - ()
Sea Level Pressure  
Sea Level Pressure 30.02 in    
Wind  
Wind Speed 5 mph (West)    
Max Wind Speed 8 mph    
Max Gust Speed -    
Visibility 9 miles    
Events      
Averages and records for this station are not official NWS values.
T = Trace of Precipitation, MM = Missing Value Source: NWS Daily Summary

Daily Weather History Graph

Daily Weather History Graph

Search for Another Location

Airport:

Trip Planner

Search our weather history database for the weather conditions in past years. The results will help you decide how hot, cold, wet, or windy it might be!

Date:

Astronomy

Feb. 14, 2013 Rise Set
Actual Time 7:16 AM EST 6:14 PM EST
Civil Twilight 6:50 AM EST 6:40 PM EST
Nautical Twilight 6:21 AM EST 7:09 PM EST
Astronomical Twilight 5:52 AM EST 7:38 PM EST
Moon 9:33 AM EST (2/14) 10:59 PM EST (2/14)
Length of Visible Light 11h 49m
Length of Day
10h 58m
Waxing Crescent, 21% of the Moon is Illuminated
Feb 14
Waxing Crescent
Feb 17
First Quarter
Feb 25
Full
Mar 4
Last Quarter
Mar 11
New

Hourly Weather History & Observations

Time (EST) Temp. Windchill Dew Point Humidity Pressure Visibility Wind Dir Wind Speed Gust Speed Precip Events Conditions
12:15 AM 42.8 °F 38.0 °F 35.6 °F 76% 29.91 in 10.0 mi WNW 8.1 mph - N/A   Clear
12:35 AM 41.0 °F 35.8 °F 33.8 °F 76% 29.91 in 10.0 mi WNW 8.1 mph - N/A   Clear
12:55 AM 41.0 °F 36.4 °F 33.8 °F 76% 29.92 in 10.0 mi WNW 6.9 mph - N/A   Clear
1:15 AM 41.0 °F 36.4 °F 33.8 °F 76% 29.93 in 10.0 mi WNW 6.9 mph - N/A   Clear
1:35 AM 41.0 °F 38.0 °F 33.8 °F 76% 29.93 in 10.0 mi WNW 4.6 mph - N/A   Clear
1:55 AM 41.0 °F 37.1 °F 33.8 °F 76% 29.93 in 10.0 mi WNW 5.8 mph - N/A   Clear
2:15 AM 37.4 °F 32.8 °F 33.8 °F 87% 29.94 in 10.0 mi WNW 5.8 mph - N/A   Clear
2:35 AM 37.4 °F 33.8 °F 33.8 °F 87% 29.94 in 10.0 mi WNW 4.6 mph - N/A   Clear
2:55 AM 37.4 °F 33.8 °F 33.8 °F 87% 29.94 in 10.0 mi WNW 4.6 mph - N/A   Clear
3:15 AM 37.4 °F 32.8 °F 33.8 °F 87% 29.94 in 10.0 mi West 5.8 mph - N/A   Clear
3:35 AM 37.4 °F 34.9 °F 33.8 °F 87% 29.95 in 10.0 mi West 3.5 mph - N/A   Clear
3:55 AM 35.6 °F 31.7 °F 33.8 °F 93% 29.95 in 10.0 mi West 4.6 mph - N/A   Clear
4:15 AM 35.6 °F 32.8 °F 33.8 °F 93% 29.95 in 10.0 mi West 3.5 mph - N/A   Clear
4:35 AM 35.6 °F 32.8 °F 33.8 °F 93% 29.95 in 10.0 mi WNW 3.5 mph - N/A   Clear
4:55 AM 33.8 °F 29.6 °F 33.8 °F 100% 29.96 in 10.0 mi West 4.6 mph - N/A   Clear
5:15 AM 33.8 °F 30.8 °F 32.0 °F 93% 29.96 in 10.0 mi West 3.5 mph - N/A   Clear
5:35 AM 33.8 °F - 32.0 °F 93% 29.96 in 10.0 mi Calm Calm - N/A   Clear
5:55 AM 33.8 °F - 32.0 °F 93% 29.97 in 5.0 mi Calm Calm - N/A   Clear
6:15 AM 33.8 °F 30.8 °F 32.0 °F 93% 29.97 in 7.0 mi WNW 3.5 mph - N/A   Clear
6:35 AM 33.8 °F - 33.8 °F 100% 30.01 in 5.0 mi Calm Calm - N/A   Clear
6:55 AM 33.8 °F - 33.8 °F 100% 30.03 in 5.0 mi Calm Calm - N/A   Clear
7:15 AM 33.8 °F 30.8 °F 33.8 °F 100% 30.03 in 7.0 mi West 3.5 mph - N/A   Clear
7:35 AM 33.8 °F - 33.8 °F 100% 30.03 in 4.0 mi Calm Calm - N/A   Clear
7:55 AM 33.8 °F - 33.8 °F 100% 30.03 in 4.0 mi Calm Calm - N/A   Clear
8:15 AM 33.8 °F 29.6 °F 33.8 °F 100% 30.03 in 5.0 mi WNW 4.6 mph - N/A   Clear
8:35 AM 35.6 °F 31.7 °F 35.6 °F 100% 30.05 in 7.0 mi NW 4.6 mph - N/A   Clear
8:55 AM 37.4 °F 34.9 °F 35.6 °F 93% 30.05 in 7.0 mi NW 3.5 mph - N/A   Clear
9:15 AM 37.4 °F 34.9 °F 35.6 °F 93% 30.07 in 10.0 mi NW 3.5 mph - N/A   Clear
9:35 AM 37.4 °F 33.8 °F 33.8 °F 87% 30.06 in 10.0 mi NNW 4.6 mph - N/A   Clear
9:55 AM 39.2 °F 37.0 °F 33.8 °F 81% 30.08 in 10.0 mi NNW 3.5 mph - N/A   Clear
10:15 AM 41.0 °F 39.0 °F 33.8 °F 76% 30.09 in 10.0 mi NNW 3.5 mph - N/A   Clear
10:35 AM 42.8 °F 39.3 °F 33.8 °F 70% 30.09 in 10.0 mi NW 5.8 mph - N/A   Clear
10:55 AM 42.8 °F - 35.6 °F 76% 30.09 in 10.0 mi Calm Calm - N/A   Clear
11:15 AM 44.6 °F - 33.8 °F 66% 30.10 in 10.0 mi Calm Calm - N/A   Clear
11:35 AM 44.6 °F - 32.0 °F 61% 30.09 in 10.0 mi Calm Calm - N/A   Clear
11:55 AM 46.4 °F - 32.0 °F 57% 30.08 in 10.0 mi Calm Calm - N/A   Clear
12:15 PM 46.4 °F 45.2 °F 32.0 °F 57% 30.07 in 10.0 mi SE 3.5 mph - N/A   Clear
12:35 PM 48.2 °F - 32.0 °F 54% 30.06 in 10.0 mi SE 4.6 mph - N/A   Clear
12:55 PM 50.0 °F - 32.0 °F 50% 30.04 in 10.0 mi Calm Calm - N/A   Clear
2:15 PM 53.6 °F - 32.0 °F 44% 30.03 in 10.0 mi West 8.1 mph - N/A   Clear
2:35 PM 53.6 °F - 32.0 °F 44% 30.04 in 10.0 mi WSW 6.9 mph - N/A   Clear
2:55 PM 53.6 °F - 32.0 °F 44% 30.02 in 10.0 mi WNW 6.9 mph - N/A   Clear
3:15 PM 53.6 °F - 32.0 °F 44% 30.02 in 10.0 mi WNW 4.6 mph - N/A   Clear
3:35 PM 53.6 °F - 32.0 °F 44% 30.02 in 10.0 mi WSW 5.8 mph - N/A   Clear
3:55 PM 53.6 °F - 32.0 °F 44% 30.02 in 10.0 mi West 4.6 mph - N/A   Clear
4:35 PM 53.6 °F - 32.0 °F 44% 30.01 in 10.0 mi NW 4.6 mph - N/A   Clear
4:55 PM 53.6 °F - 32.0 °F 44% 30.01 in 10.0 mi West 5.8 mph - N/A   Clear
5:15 PM 53.6 °F - 32.0 °F 44% 30.01 in 10.0 mi WNW 5.8 mph - N/A   Clear
5:35 PM 53.6 °F - 32.0 °F 44% 30.01 in 10.0 mi West 3.5 mph - N/A   Clear
5:55 PM 53.6 °F - 33.8 °F 47% 30.01 in 10.0 mi West 3.5 mph - N/A   Clear
6:15 PM 50.0 °F - 35.6 °F 58% 30.01 in 10.0 mi Calm Calm - N/A   Clear
6:35 PM 46.4 °F - 35.6 °F 66% 30.01 in 10.0 mi Calm Calm - N/A   Clear
6:55 PM 44.6 °F - 37.4 °F 76% 30.02 in 10.0 mi Calm Calm - N/A   Clear
7:15 PM 42.8 °F 41.1 °F 37.4 °F 81% 30.03 in 10.0 mi SSW 3.5 mph - N/A   Clear
7:35 PM 41.0 °F 37.1 °F 37.4 °F 87% 30.03 in 10.0 mi South 5.8 mph - N/A   Clear
7:55 PM 41.0 °F 38.0 °F 37.4 °F 87% 30.04 in 10.0 mi South 4.6 mph - N/A   Clear
8:15 PM 41.0 °F 39.0 °F 37.4 °F 87% 30.04 in 10.0 mi South 3.5 mph - N/A   Clear
8:35 PM 39.2 °F 35.9 °F 37.4 °F 93% 30.04 in 10.0 mi South 4.6 mph - N/A   Clear
8:55 PM 41.0 °F 39.0 °F 37.4 °F 87% 30.04 in 10.0 mi SSW 3.5 mph - N/A   Clear
9:15 PM 41.0 °F - 37.4 °F 87% 30.04 in 10.0 mi Calm Calm - N/A   Clear
9:35 PM 37.4 °F 34.9 °F 37.4 °F 100% 30.05 in 10.0 mi SSW 3.5 mph - N/A   Clear
9:55 PM 37.4 °F 33.8 °F 35.6 °F 93% 30.05 in 10.0 mi SSW 4.6 mph - N/A   Clear
10:15 PM 41.0 °F 39.0 °F 37.4 °F 87% 30.06 in 10.0 mi SSW 3.5 mph - N/A   Clear
10:35 PM 41.0 °F 39.0 °F 37.4 °F 87% 30.06 in 10.0 mi SSW 3.5 mph - N/A   Clear
10:55 PM 39.2 °F 35.9 °F 37.4 °F 93% 30.07 in 10.0 mi SSW 4.6 mph - N/A   Clear
11:15 PM 41.0 °F 38.0 °F 37.4 °F 87% 30.08 in 10.0 mi SSW 4.6 mph - N/A   Clear
11:35 PM 39.2 °F 37.0 °F 35.6 °F 87% 30.07 in 10.0 mi South 3.5 mph - N/A   Clear
11:55 PM 39.2 °F 35.9 °F 37.4 °F 93% 30.07 in 10.0 mi SW 4.6 mph - N/A   Clear